Overview Statistics Trail Chart Weather Telemetry Raw packets
 

This is the latest recevied weather packets stored in our database for station/object K5GHS-1. If no packets are shown the sender has not sent any weather packets the latest 10 day(s).

<< 111 112 113 114 >>
Time Temp. Humidity Pressure Rain* Wind** Luminosity Snow
1787864052 38.89° C 39% 1012.7 hPa 0 mm - 596 W/m² -
1787863750 38.89° C 39% 1012.7 hPa 0 mm - 596 W/m² -
1787863449 38.33° C 39% 1013.2 hPa 0 mm - 544 W/m² -
1787863146 37.78° C 39% 1013 hPa 0 mm - 541 W/m² -
1787862842 38.33° C 40% 1013.1 hPa 0 mm - 541 W/m² -
1787862541 37.78° C 40% 1013.1 hPa 0 mm - 542 W/m² -
1787862236 37.78° C 39% 1013.3 hPa 0 mm - 392 W/m² -
1787861931 37.78° C 40% 1013.3 hPa 0 mm - 402 W/m² -
1787861631 37.78° C 39% 1013.2 hPa 0 mm - 517 W/m² -
1787861329 38.33° C 37% 1013.4 hPa 0 mm - 518 W/m² -
1787861024 37.78° C 40% 1013.5 hPa 0 mm - 564 W/m² -
1787860723 37.78° C 41% 1013.5 hPa 0 mm - 573 W/m² -
1787860419 38.33° C 41% 1013.7 hPa 0 mm - 329 W/m² -
1787860118 37.78° C 40% 1013.5 hPa 0 mm - 614 W/m² -
1787859814 38.33° C 41% 1013.6 hPa 0 mm - 613 W/m² -
1787859520 37.78° C 41% 1013.7 hPa 0 mm - 517 W/m² -
1787859208 37.78° C 42% 1013.7 hPa 0 mm - 602 W/m² -
1787858905 37.22° C 42% 1013.7 hPa 0 mm - 514 W/m² -
1787858601 37.22° C 42% 1013.7 hPa 0 mm - 481 W/m² -
1787858301 37.78° C 43% 1013.8 hPa 0 mm - 349 W/m² -
1787857996 37.22° C 44% 1013.7 hPa 0 mm - 571 W/m² -

* Rain latest hour (hover to see other rain measurements)
** Current wind speed in m/s (hover to see current wind gust speed)